Weather History for Copper Harbor, MI

Change the Weather History Date:

Friday, March 2, 2012

  Actual Average Record
Temperature  
Mean Temperature 32 °F -  
Max Temperature 35 °F 25 °F 37 °F (2001)
Min Temperature 28 °F 13 °F -16 °F (2003)
Degree Days  
Heating Degree Days 34    
Moisture  
Dew Point 29 °F    
Average Humidity 91    
Maximum Humidity 100    
Minimum Humidity 82    
Precipitation  
Precipitation 0.07 in - - ()
Sea Level Pressure  
Sea Level Pressure 29.68 in    
Wind  
Wind Speed 2 mph (ESE)    
Max Wind Speed 14 mph    
Max Gust Speed 21 mph    
Averages and records for this station are not official NWS values.
T = Trace of Precipitation, MM = Missing Value Source: NWS Daily Summary

Daily Weather History Graph

Daily Weather History Graph

Search for Another Location

Airport:

Trip Planner

Search our weather history database for the weather conditions in past years. The results will help you decide how hot, cold, wet, or windy it might be!

Date:

Astronomy

Mar. 02, 2012 Rise Set
Actual Time 7:29 AM EST 6:38 PM EST
Civil Twilight 6:58 AM EST 7:09 PM EST
Nautical Twilight 6:22 AM EST 7:45 PM EST
Astronomical Twilight 5:47 AM EST 8:20 PM EST
Moon 12:31 PM EST (3/2) 3:38 AM EST (3/2)
Length of Visible Light 12h 11m
Length of Day
11h 09m
Waxing Gibbous, 66% of the Moon is Illuminated
Mar 2
Waxing Gibbous
Mar 8
Full
Mar 14
Last Quarter
Mar 22
New
Mar 30
First Quarter

Hourly Weather History & Observations

Time (EST) Temp. Windchill Dew Point Humidity Pressure Visibility Wind Dir Wind Speed Gust Speed Precip Events Conditions
12:51 AM 28.9 °F - 28.0 °F 96% 29.81 in - Calm Calm - N/A   Unknown
1:51 AM 28.9 °F - 27.0 °F 92% 29.80 in - Calm Calm - N/A   Unknown
2:51 AM 30.0 °F - 28.0 °F 92% 29.78 in - Calm Calm - N/A   Unknown
3:51 AM 28.9 °F - 28.0 °F 96% 29.78 in - Calm Calm - N/A   Unknown
4:51 AM 28.9 °F - 28.0 °F 96% 29.76 in - Calm Calm - N/A   Unknown
5:51 AM 28.9 °F - 27.0 °F 92% 29.76 in - Calm Calm - N/A   Unknown
6:51 AM 28.0 °F - 27.0 °F 96% 29.76 in - Calm Calm - N/A   Unknown
7:51 AM 28.0 °F - 26.1 °F 92% 29.76 in - Calm Calm - N/A   Unknown
8:51 AM 30.0 °F - 28.9 °F 96% 29.76 in - Calm Calm - N/A   Unknown
9:51 AM 32.0 °F - 30.0 °F 92% 29.74 in - Calm Calm - N/A   Unknown
10:51 AM 34.0 °F - 30.9 °F 89% 29.71 in - Calm Calm - N/A   Unknown
11:51 AM 34.0 °F 29.8 °F 30.0 °F 85% 29.73 in - Variable 4.6 mph - N/A   Unknown
12:51 PM 34.0 °F 28.8 °F 28.9 °F 82% 29.71 in - SW 5.8 mph - N/A   Unknown
1:51 PM 35.1 °F 32.2 °F 30.0 °F 82% 29.68 in - SE 3.5 mph - N/A   Unknown
2:51 PM 35.1 °F 31.0 °F 30.0 °F 82% 29.65 in - ESE 4.6 mph - N/A   Unknown
3:51 PM 34.0 °F 28.8 °F 30.9 °F 89% 29.62 in - East 5.8 mph - N/A   Unknown
4:51 PM 34.0 °F 28.8 °F 30.0 °F 85% 29.62 in - ESE 5.8 mph - N/A   Unknown
5:51 PM 34.0 °F 31.0 °F 28.9 °F 82% 29.61 in - ESE 3.5 mph - N/A   Unknown
6:51 PM 34.0 °F 28.0 °F 28.9 °F 82% 29.59 in - Variable 6.9 mph - N/A   Unknown
7:51 PM 33.1 °F 28.7 °F 30.9 °F 92% 29.58 in - East 4.6 mph - N/A   Unknown
8:51 PM 33.1 °F 27.7 °F 32.0 °F 96% 29.55 in - East 5.8 mph - 0.03 in   Unknown
9:51 PM 33.1 °F 23.4 °F 32.0 °F 96% 29.52 in - East 13.8 mph 20.7 mph 0.01 in   Unknown
10:51 PM 33.1 °F 25.5 °F 32.0 °F 96% 29.49 in - ENE 9.2 mph - 0.01 in   Unknown
11:51 PM 32.0 °F 25.6 °F 32.0 °F 100% 29.48 in - East 6.9 mph - 0.02 in   Unknown